Hourly Data Report for January 15, 2004

SHERBROOKE A
QUEBEC

45°26'00.000" N
71°41'00.000" W
241.40 m
7028124
71610
YSC

Download Data

Hourly Data (January 2004)
Hourly Data Report for January 15, 2004
TIME
LST
Temp Definition
°C
Dew Point Definition
°C
Rel Hum Definition
%
Precip. Amount Definition
mm

Wind Dir Definition
10's deg

Wind Spd Definition
km/h
Visibility Definition
km
Stn Press Definition
kPa
Hmdx Definition


Wind Chill Definition


Weather Definition


00:00 -34.7 -39.9 59     0 15.0 98.51      
01:00 -35.7 -40.5 61   17 4 12.9 98.47   -41  
02:00 -37.0 -41.7 62     0 12.9 98.46      
03:00 -37.7 -43.1 57     0 15.0 98.43      
04:00 -38.0 -43.2 58     0 15.0 98.37      
05:00 -38.6 -43.3 61     0 15.0 98.32      
06:00 -40.2 -44.9 61     0 4.8 98.32      
07:00 -40.1 -45.2 58   11 4 2.1 98.33   -46  
08:00 -39.8 -44.6 60   19 4 19.3 98.31   -45 Mainly Clear
09:00 -36.1 -40.8 62   26 7 19.3 98.31   -44 Ice Crystals
10:00 -31.2 -36.0 63   25 7 16.1 98.30   -39 Ice Crystals
11:00 -28.8 -35.2 54   26 22 24.1 98.18   -42 Ice Crystals
12:00 -27.7 -35.0 50   28 22 24.1 98.04   -41 Mainly Clear
13:00 -26.3 -35.1 43   27 26 24.1 97.89   -40 Mainly Clear
14:00 -25.9 -34.8 43   29 28 24.1 97.79   -40 Mainly Clear
15:00 -26.0 -33.6 49   27 26 16.1 97.81   -40 Snow Showers
16:00 -26.5 -33.4 52   27 28 12.9 97.75   -41 Snow Showers
17:00 -27.1 -33.0 57   27 22 4.8 97.68   -40 Snow Showers
18:00 -27.4 -33.6 56   25 22 4.0 97.59   -40  
19:00 -27.2 -33.9 53   27 28 4.8 97.52   -42 Snow
20:00 -27.4 -34.0 53   27 35 4.8 97.45   -43 Snow
21:00 -27.5 -33.9 54   27 32 3.2 97.38   -43 Snow
22:00 -27.5 -33.2 58   27 32 1.4 97.28   -43  
23:00 -27.5 -33.4 57   27 26 3.5 97.27   -41  

Notes on Data Quality.

Legend

  • E = Estimated
  • M = Missing
  • NA = Not Available*
  • [empty] = Indicates an unobserved value
Date modified: